Time,TemperatureF,DewpointF,PressureIn,WindDirection,WindDirectionDegrees,WindSpeedMPH,WindSpeedGustMPH,Humidity,HourlyPrecipIn,Conditions,Clouds,dailyrainin,SolarRadiationWatts/m^2,SoftwareType,DateUTC
2013-03-22 00:03:00,29.0,27.0,29.85,ENE,58,0.0,3.0,91,0.00,,,0.00,0,Custom,2013-03-22 05:03:00,
2013-03-22 00:08:00,29.0,27.0,29.85,ENE,67,0.0,3.0,92,0.00,,,0.00,0,Custom,2013-03-22 05:08:00,
2013-03-22 00:13:00,29.1,27.0,29.85,NE,56,0.0,3.0,92,0.00,,,0.00,0,Custom,2013-03-22 05:13:00,
2013-03-22 00:18:00,29.1,27.0,29.85,ENE,65,0.0,2.0,91,0.00,,,0.00,0,Custom,2013-03-22 05:18:00,
2013-03-22 00:23:00,29.2,27.0,29.85,ENE,66,2.0,3.0,91,0.00,,,0.00,0,Custom,2013-03-22 05:23:00,
2013-03-22 00:28:00,29.3,27.0,29.85,ENE,57,3.0,3.0,91,0.00,,,0.00,0,Custom,2013-03-22 05:28:00,
2013-03-22 00:33:00,29.3,27.0,29.85,ENE,70,2.0,5.0,91,0.00,,,0.00,0,Custom,2013-03-22 05:33:00,
2013-03-22 00:38:00,29.4,27.0,29.85,ENE,70,0.0,2.0,92,0.00,,,0.00,0,Custom,2013-03-22 05:38:00,
2013-03-22 00:43:00,29.4,27.0,29.85,NE,51,0.0,4.0,91,0.00,,,0.00,0,Custom,2013-03-22 05:43:00,
2013-03-22 00:48:00,29.4,27.0,29.85,East,91,0.0,8.0,92,0.00,,,0.00,0,Custom,2013-03-22 05:48:00,
2013-03-22 00:53:00,29.5,28.0,29.85,NE,42,0.0,5.0,92,0.00,,,0.00,0,Custom,2013-03-22 05:53:00,
2013-03-22 00:58:00,29.5,28.0,29.85,ENE,76,0.0,6.0,92,0.00,,,0.00,0,Custom,2013-03-22 05:58:00,
2013-03-22 01:03:00,29.4,28.0,29.85,ENE,66,0.0,4.0,92,0.00,,,0.00,0,Custom,2013-03-22 06:03:00,
2013-03-22 01:08:00,29.5,28.0,29.85,ENE,58,0.0,5.0,92,0.00,,,0.00,0,Custom,2013-03-22 06:08:00,
2013-03-22 01:13:00,29.5,28.0,29.85,NE,46,0.0,3.0,92,0.00,,,0.00,0,Custom,2013-03-22 06:13:00,
2013-03-22 01:18:00,29.5,27.0,29.85,ENE,64,0.0,4.0,91,0.00,,,0.00,0,Custom,2013-03-22 06:18:00,
2013-03-22 01:23:00,29.5,27.0,29.85,NE,39,0.0,4.0,92,0.00,,,0.00,0,Custom,2013-03-22 06:23:00,
2013-03-22 01:28:00,29.5,28.0,29.85,NE,34,0.0,5.0,92,0.00,,,0.00,0,Custom,2013-03-22 06:28:00,
2013-03-22 01:33:00,29.5,27.0,29.85,NE,56,0.0,3.0,92,0.00,,,0.00,0,Custom,2013-03-22 06:33:00,
2013-03-22 01:38:00,29.7,28.0,29.85,NE,56,2.0,2.0,92,0.00,,,0.00,0,Custom,2013-03-22 06:38:00,
2013-03-22 01:43:00,29.7,28.0,29.85,NE,50,0.0,3.0,92,0.00,,,0.00,0,Custom,2013-03-22 06:43:00,
2013-03-22 01:48:00,29.7,28.0,29.85,NE,53,4.0,4.0,91,0.00,,,0.00,0,Custom,2013-03-22 06:48:00,
2013-03-22 01:53:00,29.8,28.0,29.85,NE,56,0.0,4.0,92,0.00,,,0.00,0,Custom,2013-03-22 06:53:00,
2013-03-22 01:58:00,29.8,28.0,29.85,ENE,73,3.0,3.0,92,0.00,,,0.00,0,Custom,2013-03-22 06:58:00,
2013-03-22 02:03:00,29.8,28.0,29.85,ENE,72,0.0,3.0,92,0.00,,,0.00,0,Custom,2013-03-22 07:03:00,
2013-03-22 02:08:00,29.8,28.0,29.85,ENE,57,0.0,2.0,92,0.00,,,0.00,0,Custom,2013-03-22 07:08:00,
2013-03-22 02:13:00,29.9,28.0,29.85,ENE,68,0.0,5.0,92,0.00,,,0.00,0,Custom,2013-03-22 07:13:00,
2013-03-22 02:18:00,29.9,28.0,29.85,ENE,69,0.0,3.0,92,0.00,,,0.00,0,Custom,2013-03-22 07:18:00,
2013-03-22 02:23:00,29.9,28.0,29.85,ENE,62,4.0,4.0,92,0.00,,,0.00,0,Custom,2013-03-22 07:23:00,
2013-03-22 02:28:00,29.9,28.0,29.85,ENE,69,7.0,7.0,92,0.00,,,0.00,0,Custom,2013-03-22 07:28:00,
2013-03-22 02:33:00,29.9,28.0,29.86,ENE,64,4.0,6.0,92,0.00,,,0.00,0,Custom,2013-03-22 07:33:00,
2013-03-22 02:38:00,29.9,28.0,29.86,NE,54,0.0,4.0,92,0.00,,,0.00,0,Custom,2013-03-22 07:38:00,
2013-03-22 02:43:00,29.9,28.0,29.85,East,82,3.0,6.0,91,0.00,,,0.00,0,Custom,2013-03-22 07:43:00,
2013-03-22 02:48:00,30.0,28.0,29.85,NE,49,2.0,4.0,92,0.00,,,0.00,0,Custom,2013-03-22 07:48:00,
2013-03-22 02:53:00,30.0,28.0,29.85,ENE,64,2.0,3.0,92,0.00,,,0.00,0,Custom,2013-03-22 07:53:00,
2013-03-22 02:58:00,30.0,28.0,29.85,ENE,62,3.0,3.0,92,0.00,,,0.00,0,Custom,2013-03-22 07:58:00,
2013-03-22 03:03:00,30.0,28.0,29.85,NE,50,0.0,3.0,92,0.00,,,0.00,0,Custom,2013-03-22 08:03:00,
2013-03-22 03:08:00,30.0,28.0,29.85,NE,46,0.0,3.0,91,0.00,,,0.00,0,Custom,2013-03-22 08:08:00,
2013-03-22 03:13:00,30.0,28.0,29.85,NE,43,4.0,4.0,92,0.00,,,0.00,0,Custom,2013-03-22 08:13:00,
2013-03-22 03:18:00,30.0,28.0,29.86,ENE,66,0.0,3.0,91,0.00,,,0.00,0,Custom,2013-03-22 08:18:00,
2013-03-22 03:23:00,30.0,28.0,29.86,ENE,62,0.0,3.0,92,0.00,,,0.00,0,Custom,2013-03-22 08:23:00,
2013-03-22 03:28:00,30.0,28.0,29.85,NE,41,1.0,2.0,92,0.00,,,0.00,0,Custom,2013-03-22 08:28:00,
2013-03-22 03:33:00,30.0,28.0,29.86,NE,47,0.0,2.0,92,0.00,,,0.00,0,Custom,2013-03-22 08:33:00,
2013-03-22 03:38:00,30.0,28.0,29.85,NE,47,0.0,2.0,91,0.00,,,0.00,0,Custom,2013-03-22 08:38:00,
2013-03-22 03:43:00,30.0,28.0,29.86,NE,46,0.0,3.0,92,0.00,,,0.00,0,Custom,2013-03-22 08:43:00,
2013-03-22 03:48:00,29.9,28.0,29.85,NE,48,2.0,3.0,92,0.00,,,0.00,0,Custom,2013-03-22 08:48:00,
2013-03-22 03:53:00,29.9,28.0,29.86,ENE,57,0.0,3.0,92,0.00,,,0.00,0,Custom,2013-03-22 08:53:00,
2013-03-22 03:58:00,29.9,28.0,29.86,ENE,58,2.0,2.0,92,0.00,,,0.00,0,Custom,2013-03-22 08:58:00,
2013-03-22 04:03:00,29.9,28.0,29.86,ENE,58,2.0,2.0,91,0.00,,,0.00,0,Custom,2013-03-22 09:03:00,
2013-03-22 04:08:00,29.9,28.0,29.86,ENE,58,0.0,2.0,92,0.00,,,0.00,0,Custom,2013-03-22 09:08:00,
2013-03-22 04:13:00,29.9,28.0,29.86,ENE,58,0.0,2.0,92,0.00,,,0.00,0,Custom,2013-03-22 09:13:00,
2013-03-22 04:18:00,29.9,28.0,29.86,NE,39,0.0,2.0,91,0.00,,,0.00,0,Custom,2013-03-22 09:18:00,
2013-03-22 04:23:00,29.8,28.0,29.86,NE,46,0.0,1.0,91,0.00,,,0.00,0,Custom,2013-03-22 09:23:00,
2013-03-22 04:28:00,29.9,28.0,29.86,NE,47,0.0,1.0,91,0.00,,,0.00,0,Custom,2013-03-22 09:28:00,
2013-03-22 04:33:00,29.8,28.0,29.86,NE,49,0.0,1.0,91,0.00,,,0.00,0,Custom,2013-03-22 09:33:00,
2013-03-22 04:38:00,29.8,28.0,29.86,NE,49,0.0,3.0,91,0.00,,,0.00,0,Custom,2013-03-22 09:38:00,
2013-03-22 04:43:00,29.8,28.0,29.85,NE,50,0.0,5.0,91,0.00,,,0.00,0,Custom,2013-03-22 09:43:00,
2013-03-22 04:48:00,29.8,28.0,29.85,NE,50,0.0,1.0,91,0.00,,,0.00,0,Custom,2013-03-22 09:48:00,
2013-03-22 04:53:00,29.9,28.0,29.85,ENE,69,3.0,3.0,91,0.00,,,0.00,0,Custom,2013-03-22 09:53:00,
2013-03-22 04:58:00,29.9,28.0,29.85,ENE,72,2.0,3.0,92,0.00,,,0.00,0,Custom,2013-03-22 09:58:00,
2013-03-22 05:03:00,29.9,28.0,29.85,ENE,72,2.0,2.0,92,0.00,,,0.00,0,Custom,2013-03-22 10:03:00,
2013-03-22 05:08:00,29.9,28.0,29.85,NNE,32,0.0,2.0,92,0.00,,,0.00,0,Custom,2013-03-22 10:08:00,
2013-03-22 05:13:00,29.9,28.0,29.85,NE,49,0.0,3.0,92,0.00,,,0.00,0,Custom,2013-03-22 10:13:00,
2013-03-22 05:18:00,29.9,28.0,29.85,ENE,57,0.0,1.0,92,0.00,,,0.00,0,Custom,2013-03-22 10:18:00,
2013-03-22 05:23:00,30.0,28.0,29.85,ENE,57,0.0,2.0,92,0.00,,,0.00,0,Custom,2013-03-22 10:23:00,
2013-03-22 05:28:00,30.0,28.0,29.85,ENE,57,0.0,1.0,91,0.00,,,0.00,0,Custom,2013-03-22 10:28:00,
2013-03-22 05:33:00,30.0,28.0,29.85,ENE,57,0.0,1.0,91,0.00,,,0.00,0,Custom,2013-03-22 10:33:00,
2013-03-22 05:38:00,30.1,28.0,29.85,NE,55,0.0,3.0,92,0.00,,,0.00,0,Custom,2013-03-22 10:38:00,
2013-03-22 05:43:00,30.1,28.0,29.85,NE,42,2.0,2.0,92,0.00,,,0.00,0,Custom,2013-03-22 10:43:00,
2013-03-22 05:48:00,30.1,28.0,29.85,NE,46,0.0,2.0,92,0.00,,,0.00,0,Custom,2013-03-22 10:48:00,
2013-03-22 05:53:00,30.1,28.0,29.85,NE,50,4.0,4.0,92,0.00,,,0.00,0,Custom,2013-03-22 10:53:00,
2013-03-22 05:58:00,30.1,28.0,29.85,NE,52,0.0,3.0,92,0.00,,,0.00,0,Custom,2013-03-22 10:58:00,
2013-03-22 06:03:00,30.1,28.0,29.86,NE,53,0.0,1.0,91,0.00,,,0.00,0,Custom,2013-03-22 11:03:00,
2013-03-22 06:08:00,30.1,28.0,29.86,NE,54,0.0,1.0,91,0.00,,,0.00,0,Custom,2013-03-22 11:08:00,
2013-03-22 06:13:00,30.1,28.0,29.86,NE,53,0.0,2.0,91,0.00,,,0.00,0,Custom,2013-03-22 11:13:00,
2013-03-22 06:18:00,30.1,28.0,29.86,ENE,72,0.0,3.0,91,0.00,,,0.00,0,Custom,2013-03-22 11:18:00,
2013-03-22 06:23:00,30.0,28.0,29.87,ENE,57,0.0,2.0,91,0.00,,,0.00,0,Custom,2013-03-22 11:23:00,
2013-03-22 06:28:00,30.0,28.0,29.87,ENE,59,0.0,1.0,91,0.00,,,0.00,0,Custom,2013-03-22 11:28:00,
2013-03-22 06:33:00,29.9,28.0,29.86,ENE,64,0.0,3.0,90,0.00,,,0.00,0,Custom,2013-03-22 11:33:00,
2013-03-22 06:38:00,29.9,28.0,29.86,ENE,67,0.0,3.0,91,0.00,,,0.00,0,Custom,2013-03-22 11:38:00,
2013-03-22 06:43:00,29.8,27.0,29.86,East,81,0.0,3.0,91,0.00,,,0.00,0,Custom,2013-03-22 11:43:00,
2013-03-22 06:48:00,29.7,27.0,29.86,ENE,67,0.0,5.0,90,0.00,,,0.00,0,Custom,2013-03-22 11:48:00,
2013-03-22 06:53:00,29.7,27.0,29.86,ENE,73,0.0,6.0,90,0.00,,,0.00,0,Custom,2013-03-22 11:53:00,
2013-03-22 06:58:00,29.6,27.0,29.86,ENE,67,0.0,6.0,90,0.00,,,0.00,0,Custom,2013-03-22 11:58:00,
2013-03-22 07:03:00,29.6,27.0,29.86,NE,56,0.0,4.0,90,0.00,,,0.00,0,Custom,2013-03-22 12:03:00,
2013-03-22 07:08:00,29.5,27.0,29.86,NE,53,0.0,3.0,89,0.00,,,0.00,0,Custom,2013-03-22 12:08:00,
2013-03-22 07:13:00,29.4,27.0,29.86,NE,49,0.0,2.0,89,0.00,,,0.00,0,Custom,2013-03-22 12:13:00,
2013-03-22 07:18:00,29.4,27.0,29.86,ENE,67,0.0,1.0,89,0.00,,,0.00,0,Custom,2013-03-22 12:18:00,
2013-03-22 07:23:00,29.4,27.0,29.86,NE,50,0.0,2.0,90,0.00,,,0.00,0,Custom,2013-03-22 12:23:00,
2013-03-22 07:28:00,29.4,27.0,29.86,ENE,69,0.0,3.0,89,0.00,,,0.00,0,Custom,2013-03-22 12:28:00,
2013-03-22 07:33:00,29.4,27.0,29.87,ENE,63,0.0,4.0,90,0.00,,,0.00,0,Custom,2013-03-22 12:33:00,
2013-03-22 07:38:00,29.5,27.0,29.87,ENE,59,0.0,0.0,89,0.00,,,0.00,0,Custom,2013-03-22 12:38:00,
2013-03-22 07:43:00,29.5,27.0,29.88,NE,49,0.0,2.0,89,0.00,,,0.00,0,Custom,2013-03-22 12:43:00,
2013-03-22 07:48:00,29.5,27.0,29.88,NE,49,0.0,3.0,89,0.00,,,0.00,0,Custom,2013-03-22 12:48:00,
2013-03-22 07:53:00,29.5,27.0,29.88,NE,49,0.0,0.0,89,0.00,,,0.00,0,Custom,2013-03-22 12:53:00,
2013-03-22 07:58:00,29.5,27.0,29.88,NE,55,0.0,1.0,89,0.00,,,0.00,0,Custom,2013-03-22 12:58:00,
2013-03-22 08:03:00,29.5,26.0,29.88,NE,55,0.0,1.0,88,0.00,,,0.00,0,Custom,2013-03-22 13:03:00,
2013-03-22 08:08:00,29.5,27.0,29.88,NE,56,0.0,2.0,89,0.00,,,0.00,0,Custom,2013-03-22 13:08:00,
2013-03-22 08:13:00,29.5,27.0,29.88,NE,56,0.0,2.0,89,0.00,,,0.00,0,Custom,2013-03-22 13:13:00,
2013-03-22 08:18:00,29.5,27.0,29.89,NE,56,2.0,0.0,89,0.00,,,0.00,0,Custom,2013-03-22 13:18:00,
2013-03-22 08:23:00,29.6,27.0,29.88,NE,56,0.0,2.0,89,0.00,,,0.00,7.8,Custom,2013-03-22 13:23:00,
2013-03-22 08:28:00,29.6,27.0,29.88,ENE,57,0.0,2.0,89,0.00,,,0.00,8.58,Custom,2013-03-22 13:28:00,
2013-03-22 08:33:00,29.7,27.0,29.88,ENE,57,0.0,1.0,89,0.00,,,0.00,8.97,Custom,2013-03-22 13:33:00,
2013-03-22 08:38:00,29.8,27.0,29.88,ENE,57,0.0,2.0,89,0.00,,,0.00,13.26,Custom,2013-03-22 13:38:00,
2013-03-22 08:43:00,29.8,27.0,29.88,ENE,59,0.0,1.0,89,0.00,,,0.00,14.82,Custom,2013-03-22 13:43:00,
2013-03-22 08:48:00,29.9,27.0,29.88,ENE,59,2.0,2.0,89,0.00,,,0.00,16.77,Custom,2013-03-22 13:48:00,
2013-03-22 08:53:00,29.9,27.0,29.87,NE,50,3.0,3.0,90,0.00,,,0.00,17.55,Custom,2013-03-22 13:53:00,
2013-03-22 08:58:00,30.0,27.0,29.86,NE,54,0.0,3.0,89,0.00,,,0.00,22.23,Custom,2013-03-22 13:58:00,
2013-03-22 09:03:00,30.0,27.0,29.86,East,85,0.0,3.0,90,0.00,,,0.00,17.16,Custom,2013-03-22 14:03:00,
2013-03-22 09:08:00,30.1,27.0,29.86,ENE,59,0.0,3.0,89,0.00,,,0.00,25.35,Custom,2013-03-22 14:08:00,
2013-03-22 09:13:00,30.2,28.0,29.86,ENE,64,1.0,1.0,90,0.00,,,0.00,23.79,Custom,2013-03-22 14:13:00,
2013-03-22 09:18:00,30.3,27.0,29.86,ENE,63,0.0,1.0,89,0.00,,,0.00,26.13,Custom,2013-03-22 14:18:00,
2013-03-22 09:23:00,30.3,28.0,29.86,ENE,68,0.0,2.0,89,0.00,,,0.00,28.86,Custom,2013-03-22 14:23:00,
2013-03-22 09:28:00,30.3,27.0,29.86,ENE,63,0.0,2.0,88,0.00,,,0.00,33.15,Custom,2013-03-22 14:28:00,
2013-03-22 09:33:00,30.5,28.0,29.85,ENE,69,0.0,3.0,89,0.00,,,0.00,41.34,Custom,2013-03-22 14:33:00,
2013-03-22 09:38:00,30.7,28.0,29.85,ENE,66,0.0,2.0,89,0.00,,,0.00,42.9,Custom,2013-03-22 14:38:00,
2013-03-22 09:43:00,30.8,28.0,29.85,East,86,0.0,2.0,89,0.00,,,0.00,46.02,Custom,2013-03-22 14:43:00,
2013-03-22 09:48:00,30.9,28.0,29.85,East,86,0.0,2.0,88,0.00,,,0.00,40.95,Custom,2013-03-22 14:48:00,
2013-03-22 09:53:00,30.9,28.0,29.85,ENE,57,0.0,3.0,88,0.00,,,0.00,49.14,Custom,2013-03-22 14:53:00,
2013-03-22 09:58:00,30.9,28.0,29.85,East,90,4.0,4.0,89,0.00,,,0.00,47.97,Custom,2013-03-22 14:58:00,
2013-03-22 10:03:00,30.9,28.0,29.85,East,89,0.0,3.0,89,0.00,,,0.00,44.46,Custom,2013-03-22 15:03:00,
2013-03-22 10:08:00,31.1,28.0,29.85,East,82,0.0,5.0,87,0.00,,,0.00,44.46,Custom,2013-03-22 15:08:00,
2013-03-22 10:13:00,31.3,28.0,29.85,East,83,0.0,3.0,88,0.00,,,0.00,44.85,Custom,2013-03-22 15:13:00,
2013-03-22 10:18:00,31.4,28.0,29.86,ESE,119,3.0,3.0,88,0.00,,,0.00,44.46,Custom,2013-03-22 15:18:00,
2013-03-22 10:23:00,31.4,28.0,29.86,East,89,4.0,4.0,88,0.00,,,0.00,37.05,Custom,2013-03-22 15:23:00,
2013-03-22 10:28:00,31.3,28.0,29.86,ENE,57,3.0,4.0,88,0.00,,,0.00,39,Custom,2013-03-22 15:28:00,
2013-03-22 10:33:00,31.3,28.0,29.86,ESE,105,3.0,4.0,88,0.00,,,0.00,38.22,Custom,2013-03-22 15:33:00,
2013-03-22 10:38:00,31.5,28.0,29.86,ENE,75,0.0,2.0,88,0.00,,,0.00,40.95,Custom,2013-03-22 15:38:00,
2013-03-22 10:43:00,31.5,28.0,29.86,East,93,1.0,4.0,88,0.00,,,0.00,40.95,Custom,2013-03-22 15:43:00,
2013-03-22 10:48:00,31.5,28.0,29.86,East,92,0.0,3.0,88,0.00,,,0.00,44.85,Custom,2013-03-22 15:48:00,
2013-03-22 10:53:00,31.5,28.0,29.86,ESE,102,0.0,3.0,88,0.00,,,0.00,48.75,Custom,2013-03-22 15:53:00,
2013-03-22 10:58:00,31.5,28.0,29.86,East,83,0.0,2.0,88,0.00,,,0.00,53.82,Custom,2013-03-22 15:58:00,
2013-03-22 11:03:00,31.8,29.0,29.86,East,83,0.0,1.0,88,0.00,,,0.00,55.77,Custom,2013-03-22 16:03:00,
2013-03-22 11:08:00,31.7,28.0,29.86,ENE,64,0.0,2.0,87,0.00,,,0.00,51.48,Custom,2013-03-22 16:08:00,
2013-03-22 11:13:00,31.7,28.0,29.86,ENE,69,0.0,1.0,87,0.00,,,0.00,75.66,Custom,2013-03-22 16:13:00,
2013-03-22 11:18:00,31.7,28.0,29.86,NE,48,0.0,3.0,87,0.00,,,0.00,76.83,Custom,2013-03-22 16:18:00,
2013-03-22 11:23:00,31.8,29.0,29.86,East,92,0.0,3.0,88,0.00,,,0.00,70.98,Custom,2013-03-22 16:23:00,
2013-03-22 11:28:00,31.5,28.0,29.86,NE,48,0.0,4.0,88,0.00,,,0.00,72.93,Custom,2013-03-22 16:28:00,
2013-03-22 11:33:00,32.0,29.0,29.86,NE,47,0.0,1.0,89,0.00,,,0.00,85.8,Custom,2013-03-22 16:33:00,
2013-03-22 11:38:00,31.8,29.0,29.86,ENE,61,0.0,3.0,88,0.00,,,0.00,64.35,Custom,2013-03-22 16:38:00,
2013-03-22 11:43:00,32.0,29.0,29.86,ENE,62,0.0,3.0,88,0.00,,,0.00,66.69,Custom,2013-03-22 16:43:00,
2013-03-22 11:48:00,31.9,29.0,29.87,ENE,58,0.0,3.0,88,0.00,,,0.00,66.3,Custom,2013-03-22 16:48:00,
2013-03-22 11:53:00,32.0,29.0,29.86,ESE,105,3.0,3.0,88,0.00,,,0.00,71.37,Custom,2013-03-22 16:53:00,
2013-03-22 11:58:00,32.3,29.0,29.86,ESE,105,0.0,2.0,88,0.00,,,0.00,88.14,Custom,2013-03-22 16:58:00,
2013-03-22 12:04:00,32.2,29.0,29.86,ESE,104,0.0,2.0,87,0.00,,,0.00,86.97,Custom,2013-03-22 17:04:00,
2013-03-22 12:09:00,32.3,29.0,29.86,East,85,0.0,2.0,87,0.00,,,0.00,92.82,Custom,2013-03-22 17:09:00,
2013-03-22 12:14:00,32.1,29.0,29.86,East,97,5.0,5.0,88,0.00,,,0.00,92.43,Custom,2013-03-22 17:14:00,
2013-03-22 12:19:00,32.1,29.0,29.87,ENE,73,0.0,5.0,88,0.00,,,0.00,69.03,Custom,2013-03-22 17:19:00,
2013-03-22 12:24:00,32.2,29.0,29.88,ENE,73,0.0,1.0,88,0.00,,,0.00,55.77,Custom,2013-03-22 17:24:00,
2013-03-22 12:29:00,32.1,29.0,29.88,NE,54,0.0,3.0,88,0.00,,,0.00,51.87,Custom,2013-03-22 17:29:00,
2013-03-22 12:34:00,32.1,29.0,29.88,ENE,59,0.0,1.0,89,0.00,,,0.00,48.75,Custom,2013-03-22 17:34:00,
2013-03-22 12:39:00,32.1,29.0,29.88,ENE,60,0.0,2.0,88,0.00,,,0.00,50.31,Custom,2013-03-22 17:39:00,
2013-03-22 12:44:00,32.0,29.0,29.88,ENE,60,0.0,1.0,89,0.00,,,0.00,42.9,Custom,2013-03-22 17:44:00,
2013-03-22 12:49:00,32.1,29.0,29.88,ENE,60,0.0,1.0,88,0.00,,,0.00,40.17,Custom,2013-03-22 17:49:00,
2013-03-22 12:54:00,32.2,29.0,29.88,ENE,60,0.0,1.0,88,0.00,,,0.00,39,Custom,2013-03-22 17:54:00,
2013-03-22 12:59:00,32.4,29.0,29.88,ENE,60,0.0,0.0,88,0.00,,,0.00,38.61,Custom,2013-03-22 17:59:00,
2013-03-22 13:04:00,32.2,29.0,29.88,ENE,61,0.0,1.0,88,0.00,,,0.00,42.51,Custom,2013-03-22 18:04:00,
2013-03-22 13:09:00,32.2,29.0,29.88,ENE,61,0.0,1.0,88,0.00,,,0.00,47.58,Custom,2013-03-22 18:09:00,
2013-03-22 13:14:00,32.2,29.0,29.88,ENE,60,0.0,3.0,89,0.00,,,0.00,56.16,Custom,2013-03-22 18:14:00,
2013-03-22 13:19:00,32.3,29.0,29.88,ENE,60,0.0,1.0,89,0.00,,,0.00,54.21,Custom,2013-03-22 18:19:00,
2013-03-22 13:24:00,32.3,29.0,29.88,ENE,60,0.0,1.0,89,0.00,,,0.00,54.21,Custom,2013-03-22 18:24:00,
2013-03-22 13:29:00,32.5,30.0,29.88,ENE,60,0.0,0.0,89,0.00,,,0.00,50.31,Custom,2013-03-22 18:29:00,
2013-03-22 13:34:00,32.5,29.0,29.88,ENE,60,0.0,1.0,89,0.00,,,0.00,60.84,Custom,2013-03-22 18:34:00,
2013-03-22 13:39:00,32.6,30.0,29.87,ENE,60,0.0,1.0,89,0.00,,,0.00,76.83,Custom,2013-03-22 18:39:00,
2013-03-22 13:44:00,32.8,30.0,29.87,ENE,61,2.0,2.0,89,0.00,,,0.00,101.79,Custom,2013-03-22 18:44:00,
2013-03-22 13:49:00,32.8,30.0,29.86,ENE,69,0.0,2.0,89,0.00,,,0.00,93.21,Custom,2013-03-22 18:49:00,
2013-03-22 13:54:00,32.8,30.0,29.85,ENE,70,0.0,2.0,89,0.00,,,0.00,109.98,Custom,2013-03-22 18:54:00,
2013-03-22 13:59:00,32.7,30.0,29.85,NE,52,3.0,3.0,89,0.00,,,0.00,107.25,Custom,2013-03-22 18:59:00,
2013-03-22 14:04:00,32.6,30.0,29.85,NE,37,2.0,6.0,90,0.00,,,0.00,124.41,Custom,2013-03-22 19:04:00,
2013-03-22 14:09:00,32.7,30.0,29.85,ENE,74,3.0,3.0,89,0.00,,,0.00,110.37,Custom,2013-03-22 19:09:00,
2013-03-22 14:14:00,32.9,30.0,29.85,ENE,78,2.0,2.0,89,0.00,,,0.00,96.33,Custom,2013-03-22 19:14:00,
2013-03-22 14:19:00,32.8,30.0,29.85,ENE,59,2.0,5.0,89,0.00,,,0.00,87.75,Custom,2013-03-22 19:19:00,
2013-03-22 14:24:00,32.7,30.0,29.85,ENE,68,0.0,2.0,89,0.00,,,0.00,73.71,Custom,2013-03-22 19:24:00,
2013-03-22 14:29:00,32.8,30.0,29.85,ENE,68,0.0,2.0,88,0.00,,,0.00,82.68,Custom,2013-03-22 19:29:00,
2013-03-22 14:34:00,32.8,30.0,29.85,ENE,77,0.0,2.0,89,0.00,,,0.00,73.71,Custom,2013-03-22 19:34:00,
2013-03-22 14:39:00,32.8,30.0,29.85,ENE,72,1.0,2.0,88,0.00,,,0.00,70.59,Custom,2013-03-22 19:39:00,
2013-03-22 14:44:00,32.9,30.0,29.85,ENE,78,0.0,2.0,88,0.00,,,0.00,76.05,Custom,2013-03-22 19:44:00,
2013-03-22 14:49:00,32.7,29.0,29.85,NE,54,2.0,3.0,88,0.00,,,0.00,69.42,Custom,2013-03-22 19:49:00,
2013-03-22 14:54:00,32.8,30.0,29.86,NE,56,0.0,2.0,89,0.00,,,0.00,56.55,Custom,2013-03-22 19:54:00,
2013-03-22 14:59:00,32.9,30.0,29.85,NE,56,2.0,2.0,88,0.00,,,0.00,56.94,Custom,2013-03-22 19:59:00,
2013-03-22 15:04:00,32.9,30.0,29.85,ENE,57,0.0,2.0,88,0.00,,,0.00,58.5,Custom,2013-03-22 20:04:00,
2013-03-22 15:09:00,32.9,30.0,29.85,ENE,57,0.0,1.0,88,0.00,,,0.00,52.65,Custom,2013-03-22 20:09:00,
2013-03-22 15:14:00,33.1,30.0,29.85,ENE,57,0.0,1.0,88,0.00,,,0.00,51.09,Custom,2013-03-22 20:14:00,
2013-03-22 15:19:00,33.0,30.0,29.85,East,80,0.0,2.0,88,0.00,,,0.00,63.18,Custom,2013-03-22 20:19:00,
2013-03-22 15:24:00,32.9,30.0,29.85,East,79,0.0,2.0,88,0.00,,,0.00,52.26,Custom,2013-03-22 20:24:00,
2013-03-22 15:29:00,32.9,30.0,29.85,East,86,0.0,2.0,88,0.00,,,0.00,54.6,Custom,2013-03-22 20:29:00,
2013-03-22 15:34:00,32.9,30.0,29.85,East,87,0.0,2.0,88,0.00,,,0.00,48.75,Custom,2013-03-22 20:34:00,
2013-03-22 15:39:00,32.9,30.0,29.85,East,86,0.0,0.0,88,0.00,,,0.00,59.67,Custom,2013-03-22 20:39:00,
2013-03-22 15:44:00,32.9,30.0,29.85,ENE,61,0.0,2.0,88,0.00,,,0.00,54.21,Custom,2013-03-22 20:44:00,
2013-03-22 15:49:00,32.8,30.0,29.85,ENE,76,0.0,2.0,89,0.00,,,0.00,56.16,Custom,2013-03-22 20:49:00,
2013-03-22 15:54:00,33.0,30.0,29.85,ENE,70,0.0,1.0,89,0.00,,,0.00,62.4,Custom,2013-03-22 20:54:00,
2013-03-22 15:59:00,33.1,30.0,29.85,ENE,69,3.0,3.0,89,0.00,,,0.00,63.96,Custom,2013-03-22 20:59:00,
2013-03-22 16:04:00,33.0,30.0,29.85,ENE,69,0.0,2.0,88,0.00,,,0.00,62.79,Custom,2013-03-22 21:04:00,
2013-03-22 16:09:00,33.2,30.0,29.85,East,87,0.0,4.0,88,0.00,,,0.00,63.18,Custom,2013-03-22 21:09:00,
2013-03-22 16:14:00,33.1,30.0,29.85,East,99,5.0,5.0,88,0.00,,,0.00,59.67,Custom,2013-03-22 21:14:00,
2013-03-22 16:19:00,33.1,30.0,29.85,NE,55,0.0,4.0,88,0.00,,,0.00,67.47,Custom,2013-03-22 21:19:00,
2013-03-22 16:24:00,33.1,30.0,29.85,ENE,69,1.0,3.0,88,0.00,,,0.00,47.19,Custom,2013-03-22 21:24:00,
2013-03-22 16:29:00,33.1,30.0,29.85,ENE,63,3.0,4.0,89,0.00,,,0.00,51.09,Custom,2013-03-22 21:29:00,
2013-03-22 16:34:00,33.1,30.0,29.85,ENE,63,0.0,2.0,89,0.00,,,0.00,43.68,Custom,2013-03-22 21:34:00,
2013-03-22 16:39:00,33.1,30.0,29.85,ENE,62,0.0,2.0,89,0.00,,,0.00,54.21,Custom,2013-03-22 21:39:00,
2013-03-22 16:44:00,33.1,30.0,29.85,ENE,63,0.0,2.0,89,0.00,,,0.00,42.9,Custom,2013-03-22 21:44:00,
2013-03-22 16:49:00,33.2,30.0,29.85,ENE,63,0.0,0.0,89,0.00,,,0.00,38.61,Custom,2013-03-22 21:49:00,
2013-03-22 16:54:00,33.1,30.0,29.85,ENE,63,0.0,3.0,88,0.00,,,0.00,37.05,Custom,2013-03-22 21:54:00,
2013-03-22 16:59:00,33.1,30.0,29.85,ENE,66,0.0,2.0,88,0.00,,,0.00,42.51,Custom,2013-03-22 21:59:00,
2013-03-22 17:04:00,33.1,30.0,29.85,ENE,70,0.0,2.0,88,0.00,,,0.00,44.46,Custom,2013-03-22 22:04:00,
2013-03-22 17:09:00,33.2,30.0,29.85,ENE,70,0.0,1.0,89,0.00,,,0.00,44.46,Custom,2013-03-22 22:09:00,
2013-03-22 17:14:00,33.4,30.0,29.85,ENE,70,0.0,1.0,88,0.00,,,0.00,42.51,Custom,2013-03-22 22:14:00,
2013-03-22 17:19:00,33.3,30.0,29.85,North,3,0.0,2.0,88,0.00,,,0.00,40.56,Custom,2013-03-22 22:19:00,
2013-03-22 17:24:00,33.2,30.0,29.85,ENE,61,0.0,5.0,88,0.00,,,0.00,45.24,Custom,2013-03-22 22:24:00,
2013-03-22 17:29:00,33.2,30.0,29.85,NE,56,0.0,2.0,89,0.00,,,0.00,51.48,Custom,2013-03-22 22:29:00,
2013-03-22 17:34:00,33.3,30.0,29.85,NE,51,0.0,5.0,88,0.00,,,0.00,38.61,Custom,2013-03-22 22:34:00,
2013-03-22 17:39:00,33.4,30.0,29.86,NE,51,0.0,5.0,88,0.00,,,0.00,39,Custom,2013-03-22 22:39:00,
2013-03-22 17:44:00,33.3,30.0,29.86,NE,50,0.0,3.0,88,0.00,,,0.00,39,Custom,2013-03-22 22:44:00,
2013-03-22 17:49:00,33.4,30.0,29.86,NE,52,0.0,2.0,88,0.00,,,0.00,37.05,Custom,2013-03-22 22:49:00,
2013-03-22 17:54:00,33.3,30.0,29.86,ENE,67,0.0,3.0,88,0.00,,,0.00,32.37,Custom,2013-03-22 22:54:00,
2013-03-22 17:59:00,33.4,30.0,29.86,ENE,68,2.0,2.0,88,0.00,,,0.00,37.05,Custom,2013-03-22 22:59:00,
2013-03-22 18:04:00,33.5,30.0,29.86,ENE,59,2.0,2.0,88,0.00,,,0.00,32.37,Custom,2013-03-22 23:04:00,
2013-03-22 18:09:00,33.4,30.0,29.85,NE,55,0.0,2.0,87,0.00,,,0.00,33.93,Custom,2013-03-22 23:09:00,
2013-03-22 18:14:00,33.5,30.0,29.85,ENE,62,0.0,1.0,87,0.00,,,0.00,42.9,Custom,2013-03-22 23:14:00,
2013-03-22 18:19:00,33.6,30.0,29.85,NNE,31,0.0,2.0,87,0.00,,,0.00,32.76,Custom,2013-03-22 23:19:00,
2013-03-22 18:24:00,33.6,30.0,29.85,NE,41,2.0,3.0,87,0.00,,,0.00,25.35,Custom,2013-03-22 23:24:00,
2013-03-22 18:29:00,33.6,30.0,29.85,NNE,30,0.0,2.0,87,0.00,,,0.00,22.23,Custom,2013-03-22 23:29:00,
2013-03-22 18:34:00,33.6,30.0,29.85,ENE,63,0.0,1.0,87,0.00,,,0.00,22.23,Custom,2013-03-22 23:34:00,
2013-03-22 18:39:00,33.5,30.0,29.86,ENE,67,0.0,1.0,87,0.00,,,0.00,17.16,Custom,2013-03-22 23:39:00,
2013-03-22 18:44:00,33.5,30.0,29.86,ENE,66,0.0,2.0,86,0.00,,,0.00,16.38,Custom,2013-03-22 23:44:00,
2013-03-22 18:49:00,33.5,30.0,29.86,NE,54,0.0,2.0,87,0.00,,,0.00,12.87,Custom,2013-03-22 23:49:00,
2013-03-22 18:54:00,33.5,30.0,29.87,NE,54,0.0,1.0,86,0.00,,,0.00,9.36,Custom,2013-03-22 23:54:00,
2013-03-22 18:59:00,33.5,30.0,29.87,NNE,33,2.0,2.0,87,0.00,,,0.00,7.8,Custom,2013-03-22 23:59:00,
2013-03-22 19:04:00,33.5,30.0,29.87,NE,34,0.0,2.0,86,0.00,,,0.00,0,Custom,2013-03-23 00:04:00,
2013-03-22 19:09:00,33.4,30.0,29.88,ENE,63,0.0,2.0,86,0.00,,,0.00,0,Custom,2013-03-23 00:09:00,
2013-03-22 19:14:00,33.4,30.0,29.88,ENE,60,0.0,1.0,86,0.00,,,0.00,0,Custom,2013-03-23 00:14:00,
2013-03-22 19:19:00,33.4,30.0,29.88,ENE,60,1.0,1.0,86,0.00,,,0.00,0,Custom,2013-03-23 00:19:00,
2013-03-22 19:24:00,33.4,30.0,29.88,NE,52,0.0,2.0,86,0.00,,,0.00,0,Custom,2013-03-23 00:24:00,
2013-03-22 19:29:00,33.4,29.0,29.88,NE,52,0.0,0.0,85,0.00,,,0.00,0,Custom,2013-03-23 00:29:00,
2013-03-22 19:34:00,33.4,30.0,29.89,NE,52,1.0,2.0,86,0.00,,,0.00,0,Custom,2013-03-23 00:34:00,
2013-03-22 19:39:00,33.4,29.0,29.89,NE,52,0.0,1.0,85,0.00,,,0.00,0,Custom,2013-03-23 00:39:00,
2013-03-22 19:44:00,33.4,30.0,29.88,NE,52,0.0,1.0,86,0.00,,,0.00,0,Custom,2013-03-23 00:44:00,
2013-03-22 19:49:00,33.4,30.0,29.89,NE,52,0.0,0.0,86,0.00,,,0.00,0,Custom,2013-03-23 00:49:00,
2013-03-22 19:54:00,33.3,29.0,29.89,NE,52,0.0,0.0,86,0.00,,,0.00,0,Custom,2013-03-23 00:54:00,
2013-03-22 19:59:00,33.2,29.0,29.88,NE,52,2.0,2.0,85,0.00,,,0.00,0,Custom,2013-03-23 00:59:00,
2013-03-22 20:04:00,33.2,29.0,29.88,NE,52,0.0,1.0,85,0.00,,,0.00,0,Custom,2013-03-23 01:04:00,
2013-03-22 20:09:00,33.2,29.0,29.88,NE,52,0.0,1.0,85,0.00,,,0.00,0,Custom,2013-03-23 01:09:00,
2013-03-22 20:14:00,33.2,29.0,29.88,NE,52,0.0,2.0,85,0.00,,,0.00,0,Custom,2013-03-23 01:14:00,
2013-03-22 20:19:00,33.2,29.0,29.89,NE,52,0.0,0.0,85,0.00,,,0.00,0,Custom,2013-03-23 01:19:00,
2013-03-22 20:24:00,33.1,29.0,29.89,NE,53,0.0,1.0,84,0.00,,,0.00,0,Custom,2013-03-23 01:24:00,
2013-03-22 20:29:00,33.2,29.0,29.88,NE,53,0.0,1.0,84,0.00,,,0.00,0,Custom,2013-03-23 01:29:00,
2013-03-22 20:34:00,33.2,29.0,29.88,NE,53,0.0,0.0,84,0.00,,,0.00,0,Custom,2013-03-23 01:34:00,
2013-03-22 20:39:00,33.2,29.0,29.88,NE,53,1.0,1.0,84,0.00,,,0.00,0,Custom,2013-03-23 01:39:00,
2013-03-22 20:45:00,33.2,29.0,29.88,NE,53,0.0,2.0,83,0.00,,,0.00,0,Custom,2013-03-23 01:45:00,
2013-03-22 20:50:00,33.2,29.0,29.88,NE,53,0.0,2.0,83,0.00,,,0.00,0,Custom,2013-03-23 01:50:00,
2013-03-22 20:55:00,33.2,29.0,29.88,NE,53,1.0,1.0,83,0.00,,,0.00,0,Custom,2013-03-23 01:55:00,
2013-03-22 21:00:00,33.1,29.0,29.88,NE,51,3.0,3.0,84,0.00,,,0.00,0,Custom,2013-03-23 02:00:00,
2013-03-22 21:05:00,33.2,29.0,29.88,NE,51,0.0,2.0,83,0.00,,,0.00,0,Custom,2013-03-23 02:05:00,
2013-03-22 21:10:00,33.1,29.0,29.88,NE,52,0.0,2.0,83,0.00,,,0.00,0,Custom,2013-03-23 02:10:00,
2013-03-22 21:15:00,33.1,28.0,29.89,NE,52,0.0,1.0,83,0.00,,,0.00,0,Custom,2013-03-23 02:15:00,
2013-03-22 21:20:00,33.1,28.0,29.89,NE,44,2.0,2.0,83,0.00,,,0.00,0,Custom,2013-03-23 02:20:00,
2013-03-22 21:25:00,33.1,28.0,29.89,NE,49,0.0,2.0,83,0.00,,,0.00,0,Custom,2013-03-23 02:25:00,
2013-03-22 21:30:00,33.1,28.0,29.89,NE,44,2.0,2.0,83,0.00,,,0.00,0,Custom,2013-03-23 02:30:00,
2013-03-22 21:35:00,33.1,28.0,29.89,ENE,72,0.0,3.0,83,0.00,,,0.00,0,Custom,2013-03-23 02:35:00,
2013-03-22 21:40:00,33.1,28.0,29.89,ENE,66,0.0,3.0,83,0.00,,,0.00,0,Custom,2013-03-23 02:40:00,
2013-03-22 21:45:00,33.1,28.0,29.89,ENE,67,2.0,2.0,82,0.00,,,0.00,0,Custom,2013-03-23 02:45:00,
2013-03-22 21:50:00,33.1,28.0,29.89,NE,53,0.0,3.0,82,0.00,,,0.00,0,Custom,2013-03-23 02:50:00,
2013-03-22 21:55:00,33.2,28.0,29.90,ENE,62,0.0,1.0,82,0.00,,,0.00,0,Custom,2013-03-23 02:55:00,
2013-03-22 22:00:00,33.2,28.0,29.90,ENE,59,3.0,4.0,82,0.00,,,0.00,0,Custom,2013-03-23 03:00:00,
2013-03-22 22:05:00,33.2,28.0,29.90,ENE,59,0.0,2.0,82,0.00,,,0.00,0,Custom,2013-03-23 03:05:00,
2013-03-22 22:10:00,33.2,28.0,29.90,ENE,70,0.0,1.0,83,0.00,,,0.00,0,Custom,2013-03-23 03:10:00,
2013-03-22 22:15:00,33.1,28.0,29.90,NE,48,0.0,2.0,83,0.00,,,0.00,0,Custom,2013-03-23 03:15:00,
2013-03-22 22:20:00,33.2,28.0,29.90,ENE,62,0.0,2.0,82,0.00,,,0.00,0,Custom,2013-03-23 03:20:00,
2013-03-22 22:25:00,33.2,28.0,29.91,NE,49,0.0,1.0,82,0.00,,,0.00,0,Custom,2013-03-23 03:25:00,
2013-03-22 22:30:00,33.2,28.0,29.91,NE,42,2.0,2.0,82,0.00,,,0.00,0,Custom,2013-03-23 03:30:00,
2013-03-22 22:35:00,33.2,28.0,29.91,NE,43,0.0,2.0,83,0.00,,,0.00,0,Custom,2013-03-23 03:35:00,
2013-03-22 22:40:00,33.2,29.0,29.91,NE,47,0.0,2.0,83,0.00,,,0.00,0,Custom,2013-03-23 03:40:00,
2013-03-22 22:45:00,33.2,28.0,29.91,NE,47,0.0,1.0,83,0.00,,,0.00,0,Custom,2013-03-23 03:45:00,
2013-03-22 22:50:00,33.2,28.0,29.91,ENE,60,0.0,2.0,83,0.00,,,0.00,0,Custom,2013-03-23 03:50:00,
2013-03-22 22:55:00,33.2,29.0,29.91,NE,55,0.0,1.0,83,0.00,,,0.00,0,Custom,2013-03-23 03:55:00,
2013-03-22 23:00:00,33.2,28.0,29.91,NE,55,0.0,2.0,82,0.00,,,0.00,0,Custom,2013-03-23 04:00:00,
2013-03-22 23:01:00,33.2,29.0,29.91,NE,55,0.0,2.0,83,0.00,,,0.00,0,Custom,2013-03-23 04:01:00,
2013-03-22 23:02:00,33.2,29.0,29.91,NE,55,0.0,1.0,83,0.00,,,0.00,0,Custom,2013-03-23 04:02:00,
2013-03-22 23:07:00,33.2,29.0,29.91,East,80,0.0,2.0,83,0.00,,,0.00,0,Custom,2013-03-23 04:07:00,
2013-03-22 23:12:00,33.2,29.0,29.91,East,79,0.0,2.0,83,0.00,,,0.00,0,Custom,2013-03-23 04:12:00,
2013-03-22 23:17:00,33.2,29.0,29.91,NE,52,0.0,1.0,83,0.00,,,0.00,0,Custom,2013-03-23 04:17:00,
2013-03-22 23:22:00,33.2,29.0,29.91,NE,52,0.0,1.0,83,0.00,,,0.00,0,Custom,2013-03-23 04:22:00,
2013-03-22 23:27:00,33.2,29.0,29.91,NE,56,0.0,2.0,83,0.00,,,0.00,0,Custom,2013-03-23 04:27:00,
2013-03-22 23:32:00,33.2,29.0,29.91,NE,56,0.0,1.0,83,0.00,,,0.00,0,Custom,2013-03-23 04:32:00,
2013-03-22 23:37:00,33.2,29.0,29.91,ENE,67,0.0,2.0,84,0.00,,,0.00,0,Custom,2013-03-23 04:37:00,
2013-03-22 23:42:00,33.2,29.0,29.91,NE,41,0.0,1.0,84,0.00,,,0.00,0,Custom,2013-03-23 04:42:00,
2013-03-22 23:47:00,33.1,29.0,29.91,NE,41,0.0,0.0,84,0.00,,,0.00,0,Custom,2013-03-23 04:47:00,
2013-03-22 23:52:00,33.1,29.0,29.91,East,79,0.0,2.0,84,0.00,,,0.00,0,Custom,2013-03-23 04:52:00,
2013-03-22 23:57:00,33.1,29.0,29.91,East,81,0.0,1.0,85,0.00,,,0.00,0,Custom,2013-03-23 04:57:00,